Regional Weather Roundup
Issued by NWS Spokane, WA

Home | Current Version | Previous Version | Text Only | Print | Product List | Glossary On
Versions: 1 2 3 4 5 6 7 8 9 10 11 12 13 14 15 16 17 18 19 20 21 22 23 24 25 26 27 28 29 30 31 32 33 34 35 36 37 38 39 40 41 42 43 44 45 46 47 48 49 50
000
NZUS01 KOTX 121410
RWROTX
EASTERN WASHINGTON/NORTHERN IDAHO ROUNDUP
NATIONAL WEATHER SERVICE, SPOKANE WA
700 AM PDT SAT JUL 12 2014

Note: "fair" indicated few or no clouds below 12,000 feet with no
significant weather and/or obstructions to visibility.

...NORTHEAST WASHINGTON AND NORTHERN IDAHO PANHANDLE...

CITY           SKY/WX    TMP DP  RH WIND       PRES   REMARKS
SPOKANE INTL   MOSUNNY   69  46  43 NE7       30.13R
SPOKANE DOWNTO SUNNY     66  53  63 CALM      30.13R
COEUR D ALENE  SUNNY     64  52  63 NE8       30.13R
DEER PARK      SUNNY     65  47  52 MISG      30.13R
SANDPOINT      SUNNY     61  52  72 CALM      30.15R

...SOUTHEAST WASHINGTON AND SOUTHERN IDAHO PANHANDLE...

CITY           SKY/WX    TMP DP  RH WIND       PRES   REMARKS
WALLA WALLA    PTSUNNY   73  46  38 E6        30.05R
PULLMAN/MOSCOW MOSUNNY   66  48  52 CALM      30.13R
LEWISTON       PTSUNNY   67  48  50 CALM      30.08R
LOWELL           N/A     57  52  83 CALM      30.14R

...COLUMBIA BASIN...

CITY           SKY/WX    TMP DP  RH WIND       PRES   REMARKS
EPHRATA        MOSUNNY   79  34  19 N9        30.04R
MOSES LAKE     MOSUNNY   69  41  36 NE6       30.05R
TRI CITIES     PTSUNNY   65  56  72 CALM      30.02R
HERMISTON      MOSUNNY   69  44  40 SE3       30.02R
PENDLETON      PTSUNNY   67  43  41 E7        30.06R

...EAST SLOPES CASCADES...

CITY           SKY/WX    TMP DP  RH WIND       PRES   REMARKS
THE DALLES     MOSUNNY   71  55  56 NW5       30.01R
YAKIMA         PTSUNNY   67  52  58 W10       30.06R
ELLENSBURG     PTSUNNY   68  50  52 E3        30.09R
WENATCHEE      MOSUNNY   72  47  40 W9        30.07R HAZE
OMAK           SUNNY     72  38  29 N12       30.10R

...SOUTHERN BRITISH COLUMBIA...

CITY           SKY/WX    TMP DP  RH WIND       PRES   REMARKS
PENTICTON      SUNNY     70  52  52 N7        30.13R
CASTLEGAR      SUNNY     57  52  82 VRB2      30.18R
CRANBROOK      SUNNY     61  39  44 NW2       30.24R

...WESTERN MONTANA...

CITY           SKY/WX    TMP DP  RH WIND       PRES   REMARKS
MISSOULA       SUNNY     63  46  54 W3        30.22R

...NEIGHBORING CITIES...

CITY           SKY/WX    TMP DP  RH WIND       PRES   REMARKS
SEATTLE        PTSUNNY   65  57  75 CALM      30.07R
CALGARY        MOSUNNY   59  52  77 SW10      30.22R



USA.gov is the U.S. government's official web portal to all federal, state and local government web resources and services.